Tucson, AZ

10:31 PM MST on August 21, 2019 (GMT -0700)
Tucson International

Weather History for KTUS - May, 2019

Change the Weather History Date:

Monday, May 13, 2019

  Actual Average Record
Temperature  
Mean Temperature 69 °F 75 °F  
Max Temperature 84 °F 91 °F 105 °F (1988)
Min Temperature 54 °F 60 °F 39 °F (1933)
Degree Days  
Heating Degree Days 0 0  
Month to date heating degree days 0 3  
Since 1 July heating degree days 1408 1509  
Cooling Degree Days 4 10  
Month to date cooling degree days 81 112  
Year to date cooling degree days 261 266  
Growing Degree Days 19 (Base 50)    
Moisture  
Dew Point 46 °F    
Average Humidity 44    
Maximum Humidity 75    
Minimum Humidity 15    
Precipitation  
Precipitation 0.00 in 0.01 in 0.08 in (1977)
Month to date precipitation 1.21 0.09  
Year to date precipitation 5.02 2.93  
Sea Level Pressure  
Sea Level Pressure 29.89 in    
Wind  
Wind Speed 6 mph (SW)    
Max Wind Speed 15 mph    
Max Gust Speed 19 mph    
Visibility 10 miles    
Events      
T = Trace of Precipitation, MM = Missing Value Source: NWS Daily Summary

Daily Weather History Graph

Daily Weather History Graph

Search for Another Location

Airport or City:

Astronomy

May. 13, 2019 Rise Set
Actual Time 5:27 AM MST 7:12 PM MST
Civil Twilight 5:00 AM MST 7:39 PM MST
Nautical Twilight 4:28 AM MST 8:12 PM MST
Astronomical Twilight 3:54 AM MST 8:46 PM MST
Moon 1:54 PM MST (5/13) 2:20 AM MST (5/13)
Length of Visible Light 14h 38m
Length of Day
13h 45m
Waxing Gibbous, 70% of the Moon is Illuminated
May 13
Waxing Gibbous
May 18
Full
May 26
Last Quarter
Jun 3
New
Jun 9
First Quarter

Hourly Weather History & Observations

Time (MST) Temp. Dew Point Humidity Pressure Visibility Wind Dir Wind Speed Gust Speed Precip Events Conditions
12:53 AM 59.0 °F 51.1 °F 75% 29.91 in 10.0 mi ESE 9.2 mph - N/A   Clear
1:53 AM 57.9 °F 50.0 °F 75% 29.90 in 10.0 mi SE 6.9 mph - N/A   Clear
2:53 AM 59.0 °F 46.9 °F 64% 29.91 in 10.0 mi ESE 5.8 mph - N/A   Clear
3:53 AM 57.0 °F 46.9 °F 69% 29.93 in 10.0 mi SE 9.2 mph - N/A   Clear
4:53 AM 55.9 °F 46.0 °F 69% 29.93 in 10.0 mi SSE 8.1 mph - N/A   Clear
5:53 AM 55.0 °F 46.9 °F 74% 29.95 in 10.0 mi SE 5.8 mph - N/A   Clear
6:53 AM 57.9 °F 46.9 °F 67% 29.97 in 10.0 mi SE 4.6 mph - N/A   Clear
7:53 AM 62.1 °F 46.9 °F 58% 29.97 in 10.0 mi SSE 4.6 mph - N/A   Clear
8:53 AM 66.0 °F 46.0 °F 48% 29.96 in 10.0 mi Calm Calm - N/A   Clear
9:53 AM 71.1 °F 45.0 °F 39% 29.95 in 10.0 mi Variable 3.5 mph - N/A   Clear
10:53 AM 73.9 °F 45.0 °F 35% 29.94 in 10.0 mi WNW 3.5 mph - N/A   Clear
11:53 AM 75.9 °F 44.1 °F 32% 29.91 in 10.0 mi North 5.8 mph - N/A   Clear
12:53 PM 79.0 °F 45.0 °F 30% 29.89 in 10.0 mi West 9.2 mph - N/A   Clear
1:53 PM 80.1 °F 46.0 °F 30% 29.87 in 10.0 mi West 3.5 mph - N/A   Clear
2:53 PM 82.0 °F 45.0 °F 27% 29.84 in 10.0 mi WNW 5.8 mph - N/A   Clear
3:53 PM 82.9 °F 43.0 °F 24% 29.83 in 10.0 mi West 9.2 mph 19.6 mph N/A   Clear
4:53 PM 82.9 °F 43.0 °F 24% 29.82 in 10.0 mi West 9.2 mph - N/A   Partly Cloudy
5:53 PM 82.9 °F 42.1 °F 24% 29.82 in 10.0 mi West 6.9 mph - N/A   Clear
6:53 PM 82.0 °F 42.1 °F 24% 29.82 in 10.0 mi West 5.8 mph - N/A   Clear
7:53 PM 78.1 °F 44.1 °F 30% 29.85 in 10.0 mi NW 3.5 mph - N/A   Clear
8:53 PM 75.9 °F 45.0 °F 33% 29.85 in 10.0 mi North 4.6 mph - N/A   Clear
9:53 PM 73.9 °F 46.9 °F 38% 29.86 in 10.0 mi NNW 3.5 mph - N/A   Clear
10:53 PM 70.0 °F 48.0 °F 46% 29.88 in 10.0 mi South 9.2 mph - N/A   Clear
11:53 PM 68.0 °F 50.0 °F 52% 29.88 in 10.0 mi SE 6.9 mph - N/A   Clear